Simultaneous Nadir Overpasses (SNOs) Predictions

Prediction of SNOs between GOES-16 and AQUA Satellite Orbit:

Table of predicted SNOs for the next 14.0 days since TLE Epoch: 2/19/2022
Index Date Time (GOES-16) GOES-16 Lat,Lon AQUA Lat,Lon Distance(km) Time Diff (sec)
1 02/19/2022 06:35:51 -0.07, -75.21 -0.06, -75.13 9.83 80
2 02/21/2022 06:23:37 -0.07, -75.22 -0.70, -72.15 348.33 80
3 02/21/2022 18:44:59 0.07, -75.22 -0.40, -77.33 240.64 80
4 02/23/2022 18:35:24 0.06, -75.23 0.26, -74.36 98.70 80
5 02/24/2022 06:56:38 -0.06, -75.23 0.88, -79.50 487.03 80
6 02/25/2022 18:23:08 0.06, -75.23 0.86, -71.38 438.23 80
7 02/26/2022 06:44:23 -0.05, -75.23 0.21, -76.53 147.45 80
8 02/28/2022 06:29:27 -0.05, -75.24 -0.41, -73.55 192.80 80
9 02/28/2022 18:50:50 0.04, -75.25 -0.68, -78.73 396.07 80
10 03/02/2022 18:38:34 0.04, -75.27 -0.05, -75.75 54.50 80
11 03/04/2022 18:28:58 0.04, -75.30 0.60, -72.77 288.07 80
